Time,TemperatureF,DewpointF,PressureIn,WindDirection,WindDirectionDegrees,WindSpeedMPH,WindSpeedGustMPH,Humidity,HourlyPrecipIn,Conditions,Clouds,dailyrainin,SolarRadiationWatts/m^2,SoftwareType,DateUTC
2013-02-25 00:01:00,42.0,25.0,-100.00,North,357,2.0,6.0,51,0.00,,,0.00,0.000000,,2013-02-25 08:01:00,
2013-02-25 00:32:00,42.0,24.0,-100.00,SW,228,3.0,7.0,49,0.00,,,0.00,0.000000,,2013-02-25 08:32:00,
2013-02-25 00:42:00,42.0,24.0,-100.00,SW,228,3.0,7.0,49,0.00,,,0.00,0.000000,,2013-02-25 08:42:00,
2013-02-25 00:52:00,42.0,24.0,-100.00,SW,228,3.0,7.0,49,0.00,,,0.00,0.000000,,2013-02-25 08:52:00,
2013-02-25 01:01:00,42.0,24.0,-100.00,SW,228,3.0,7.0,49,0.00,,,0.00,0.000000,,2013-02-25 09:01:00,
2013-02-25 01:32:00,40.0,25.0,-100.00,WSW,237,4.0,7.0,55,0.00,,,0.00,0.000000,,2013-02-25 09:32:00,
2013-02-25 01:42:00,40.0,25.0,-100.00,WSW,237,4.0,7.0,55,0.00,,,0.00,0.000000,,2013-02-25 09:42:00,
2013-02-25 01:52:00,40.0,25.0,-100.00,WSW,237,4.0,7.0,55,0.00,,,0.00,0.000000,,2013-02-25 09:52:00,
2013-02-25 02:01:00,40.0,25.0,-100.00,WSW,237,4.0,7.0,55,0.00,,,0.00,0.000000,,2013-02-25 10:01:00,
2013-02-25 02:21:00,37.0,26.0,-100.00,SW,222,3.0,7.0,64,0.00,,,0.00,0.000000,,2013-02-25 10:21:00,
2013-02-25 02:32:00,37.0,26.0,-100.00,SW,222,3.0,7.0,64,0.00,,,0.00,0.000000,,2013-02-25 10:32:00,
2013-02-25 02:42:00,37.0,26.0,-100.00,SW,222,3.0,7.0,64,0.00,,,0.00,0.000000,,2013-02-25 10:42:00,
2013-02-25 02:52:00,37.0,26.0,-100.00,SW,222,3.0,7.0,64,0.00,,,0.00,0.000000,,2013-02-25 10:52:00,
2013-02-25 03:01:00,37.0,26.0,-100.00,SW,222,3.0,7.0,64,0.00,,,0.00,0.000000,,2013-02-25 11:01:00,
2013-02-25 03:22:00,37.0,26.0,-100.00,SSW,206,4.0,9.0,63,0.00,,,0.00,0.000000,,2013-02-25 11:22:00,
2013-02-25 03:32:00,37.0,26.0,-100.00,SSW,206,4.0,9.0,63,0.00,,,0.00,0.000000,,2013-02-25 11:32:00,
2013-02-25 03:42:00,37.0,26.0,-100.00,SSW,206,4.0,9.0,63,0.00,,,0.00,0.000000,,2013-02-25 11:42:00,
2013-02-25 03:52:00,37.0,26.0,-100.00,SSW,206,4.0,9.0,63,0.00,,,0.00,0.000000,,2013-02-25 11:52:00,
2013-02-25 04:01:00,37.0,26.0,-100.00,SSW,206,4.0,9.0,63,0.00,,,0.00,0.000000,,2013-02-25 12:01:00,
2013-02-25 04:22:00,35.0,24.0,-100.00,SSW,203,3.0,7.0,65,0.00,,,0.00,0.000000,,2013-02-25 12:22:00,
2013-02-25 04:32:00,35.0,24.0,-100.00,SSW,203,3.0,7.0,65,0.00,,,0.00,0.000000,,2013-02-25 12:32:00,
2013-02-25 04:42:00,35.0,24.0,-100.00,SSW,203,3.0,7.0,65,0.00,,,0.00,0.000000,,2013-02-25 12:42:00,
2013-02-25 04:54:00,35.0,24.0,-100.00,SSW,203,3.0,7.0,65,0.00,,,0.00,0.000000,,2013-02-25 12:54:00,
2013-02-25 05:01:00,35.0,24.0,-100.00,SSW,203,3.0,7.0,65,0.00,,,0.00,0.000000,,2013-02-25 13:01:00,
2013-02-25 05:23:00,36.0,24.0,-100.00,SW,217,4.0,9.0,62,0.00,,,0.00,0.000000,,2013-02-25 13:23:00,
2013-02-25 05:32:00,36.0,24.0,-100.00,SW,217,4.0,9.0,62,0.00,,,0.00,0.000000,,2013-02-25 13:32:00,
2013-02-25 05:42:00,36.0,24.0,-100.00,SW,217,4.0,9.0,62,0.00,,,0.00,0.000000,,2013-02-25 13:42:00,
2013-02-25 05:52:00,36.0,24.0,-100.00,SW,217,4.0,9.0,62,0.00,,,0.00,0.000000,,2013-02-25 13:52:00,
2013-02-25 06:02:00,36.0,24.0,-100.00,SW,217,4.0,9.0,62,0.00,,,0.00,0.000000,,2013-02-25 14:02:00,
2013-02-25 06:32:00,35.0,24.0,-100.00,SW,215,3.0,8.0,64,0.00,,,0.00,0.000000,,2013-02-25 14:32:00,
2013-02-25 06:42:00,35.0,24.0,-100.00,SW,215,3.0,8.0,64,0.00,,,0.00,0.000000,,2013-02-25 14:42:00,
2013-02-25 06:52:00,35.0,24.0,-100.00,SW,215,3.0,8.0,64,0.00,,,0.00,0.000000,,2013-02-25 14:52:00,
2013-02-25 07:02:00,35.0,24.0,-100.00,SW,215,3.0,8.0,64,0.00,,,0.00,0.000000,,2013-02-25 15:02:00,
2013-02-25 07:22:00,35.0,23.0,-100.00,SSW,203,3.0,10.0,62,0.00,,,0.00,4.000000,,2013-02-25 15:22:00,
2013-02-25 07:32:00,35.0,23.0,-100.00,SSW,203,3.0,10.0,62,0.00,,,0.00,4.000000,,2013-02-25 15:32:00,
2013-02-25 07:42:00,35.0,23.0,-100.00,SSW,203,3.0,10.0,62,0.00,,,0.00,4.000000,,2013-02-25 15:42:00,
2013-02-25 07:52:00,35.0,23.0,-100.00,SSW,203,3.0,10.0,62,0.00,,,0.00,4.000000,,2013-02-25 15:52:00,
2013-02-25 08:01:00,35.0,23.0,-100.00,SSW,203,3.0,10.0,62,0.00,,,0.00,4.000000,,2013-02-25 16:01:00,
2013-02-25 08:32:00,41.0,25.0,-100.00,SSW,194,2.0,8.0,53,0.00,,,0.00,125.000000,,2013-02-25 16:32:00,
2013-02-25 08:42:00,41.0,25.0,-100.00,SSW,194,2.0,8.0,53,0.00,,,0.00,125.000000,,2013-02-25 16:42:00,
2013-02-25 08:52:00,41.0,25.0,-100.00,SSW,194,2.0,8.0,53,0.00,,,0.00,125.000000,,2013-02-25 16:52:00,
2013-02-25 09:01:00,41.0,25.0,-100.00,SSW,194,2.0,8.0,53,0.00,,,0.00,125.000000,,2013-02-25 17:01:00,
2013-02-25 09:32:00,50.0,27.0,-100.00,SSW,197,2.0,7.0,41,0.00,,,0.00,329.000000,,2013-02-25 17:32:00,
2013-02-25 09:42:00,50.0,27.0,-100.00,SSW,197,2.0,7.0,41,0.00,,,0.00,329.000000,,2013-02-25 17:42:00,
2013-02-25 09:52:00,50.0,27.0,-100.00,SSW,197,2.0,7.0,41,0.00,,,0.00,329.000000,,2013-02-25 17:52:00,
2013-02-25 10:01:00,50.0,27.0,-100.00,SSW,197,2.0,7.0,41,0.00,,,0.00,329.000000,,2013-02-25 18:01:00,
2013-02-25 10:33:00,58.0,27.0,-100.00,ENE,74,1.0,5.0,30,0.00,,,0.00,515.000000,,2013-02-25 18:33:00,
2013-02-25 10:42:00,58.0,27.0,-100.00,ENE,74,1.0,5.0,30,0.00,,,0.00,515.000000,,2013-02-25 18:42:00,
2013-02-25 10:52:00,58.0,27.0,-100.00,ENE,74,1.0,5.0,30,0.00,,,0.00,515.000000,,2013-02-25 18:52:00,
2013-02-25 11:01:00,58.0,27.0,-100.00,ENE,74,1.0,5.0,30,0.00,,,0.00,515.000000,,2013-02-25 19:01:00,
2013-02-25 11:32:00,62.0,26.0,-100.00,East,93,3.0,8.0,25,0.00,,,0.00,662.000000,,2013-02-25 19:32:00,
2013-02-25 11:42:00,62.0,26.0,-100.00,East,93,3.0,8.0,25,0.00,,,0.00,662.000000,,2013-02-25 19:42:00,
2013-02-25 11:52:00,62.0,26.0,-100.00,East,93,3.0,8.0,25,0.00,,,0.00,662.000000,,2013-02-25 19:52:00,
2013-02-25 12:01:00,62.0,26.0,-100.00,East,93,3.0,8.0,25,0.00,,,0.00,662.000000,,2013-02-25 20:01:00,
2013-02-25 12:22:00,65.0,29.0,-100.00,East,95,7.0,14.0,26,0.00,,,0.00,687.000000,,2013-02-25 20:22:00,
2013-02-25 12:32:00,65.0,29.0,-100.00,East,95,7.0,14.0,26,0.00,,,0.00,687.000000,,2013-02-25 20:32:00,
2013-02-25 12:42:00,65.0,29.0,-100.00,East,95,7.0,14.0,26,0.00,,,0.00,687.000000,,2013-02-25 20:42:00,
2013-02-25 12:52:00,65.0,29.0,-100.00,East,95,7.0,14.0,26,0.00,,,0.00,687.000000,,2013-02-25 20:52:00,
2013-02-25 13:01:00,65.0,29.0,-100.00,East,95,7.0,14.0,26,0.00,,,0.00,687.000000,,2013-02-25 21:01:00,
2013-02-25 13:32:00,69.0,30.0,-100.00,East,95,6.0,15.0,23,0.00,,,0.00,773.000000,,2013-02-25 21:32:00,
2013-02-25 13:42:00,69.0,30.0,-100.00,East,95,6.0,15.0,23,0.00,,,0.00,773.000000,,2013-02-25 21:42:00,
2013-02-25 13:52:00,69.0,30.0,-100.00,East,95,6.0,15.0,23,0.00,,,0.00,773.000000,,2013-02-25 21:52:00,
2013-02-25 14:01:00,69.0,30.0,-100.00,East,95,6.0,15.0,23,0.00,,,0.00,773.000000,,2013-02-25 22:01:00,
2013-02-25 14:32:00,69.0,29.0,-100.00,East,98,9.0,15.0,22,0.00,,,0.00,726.000000,,2013-02-25 22:32:00,
2013-02-25 14:42:00,69.0,29.0,-100.00,East,98,9.0,15.0,22,0.00,,,0.00,726.000000,,2013-02-25 22:42:00,
2013-02-25 14:52:00,69.0,29.0,-100.00,East,98,9.0,15.0,22,0.00,,,0.00,726.000000,,2013-02-25 22:52:00,
2013-02-25 15:01:00,69.0,29.0,-100.00,East,98,9.0,15.0,22,0.00,,,0.00,726.000000,,2013-02-25 23:01:00,
2013-02-25 15:32:00,70.0,28.0,-100.00,ENE,74,8.0,15.0,21,0.00,,,0.00,622.000000,,2013-02-25 23:32:00,
2013-02-25 15:42:00,70.0,28.0,-100.00,ENE,74,8.0,15.0,21,0.00,,,0.00,622.000000,,2013-02-25 23:42:00,
2013-02-25 15:52:00,70.0,28.0,-100.00,ENE,74,8.0,15.0,21,0.00,,,0.00,622.000000,,2013-02-25 23:52:00,
2013-02-25 16:01:00,70.0,28.0,-100.00,ENE,74,8.0,15.0,21,0.00,,,0.00,622.000000,,2013-02-26 00:01:00,
2013-02-25 16:22:00,68.0,28.0,-100.00,NNE,30,9.0,15.0,22,0.00,,,0.00,440.000000,,2013-02-26 00:22:00,
2013-02-25 16:32:00,68.0,28.0,-100.00,NNE,30,9.0,15.0,22,0.00,,,0.00,440.000000,,2013-02-26 00:32:00,
2013-02-25 16:42:00,68.0,28.0,-100.00,NNE,30,9.0,15.0,22,0.00,,,0.00,440.000000,,2013-02-26 00:42:00,
2013-02-25 16:52:00,68.0,28.0,-100.00,NNE,30,9.0,15.0,22,0.00,,,0.00,440.000000,,2013-02-26 00:52:00,
2013-02-25 17:01:00,68.0,28.0,-100.00,NNE,30,9.0,15.0,22,0.00,,,0.00,440.000000,,2013-02-26 01:01:00,
2013-02-25 17:32:00,62.0,33.0,-100.00,NE,35,5.0,14.0,33,0.00,,,0.00,234.000000,,2013-02-26 01:32:00,
2013-02-25 17:42:00,62.0,33.0,-100.00,NE,35,5.0,14.0,33,0.00,,,0.00,234.000000,,2013-02-26 01:42:00,
2013-02-25 17:52:00,62.0,33.0,-100.00,NE,35,5.0,14.0,33,0.00,,,0.00,234.000000,,2013-02-26 01:52:00,
2013-02-25 18:01:00,62.0,33.0,-100.00,NE,35,5.0,14.0,33,0.00,,,0.00,234.000000,,2013-02-26 02:01:00,
2013-02-25 18:32:00,54.0,35.0,-100.00,WSW,237,2.0,13.0,49,0.00,,,0.00,15.000000,,2013-02-26 02:32:00,
2013-02-25 18:42:00,54.0,35.0,-100.00,WSW,237,2.0,13.0,49,0.00,,,0.00,15.000000,,2013-02-26 02:42:00,
2013-02-25 18:52:00,54.0,35.0,-100.00,WSW,237,2.0,13.0,49,0.00,,,0.00,15.000000,,2013-02-26 02:52:00,
2013-02-25 19:01:00,54.0,35.0,-100.00,WSW,237,2.0,13.0,49,0.00,,,0.00,15.000000,,2013-02-26 03:01:00,
2013-02-25 19:22:00,48.0,35.0,-100.00,WSW,242,1.0,6.0,60,0.00,,,0.00,0.000000,,2013-02-26 03:22:00,
2013-02-25 19:32:00,48.0,35.0,-100.00,WSW,242,1.0,6.0,60,0.00,,,0.00,0.000000,,2013-02-26 03:32:00,
2013-02-25 19:42:00,48.0,35.0,-100.00,WSW,242,1.0,6.0,60,0.00,,,0.00,0.000000,,2013-02-26 03:42:00,
2013-02-25 19:52:00,48.0,35.0,-100.00,WSW,242,1.0,6.0,60,0.00,,,0.00,0.000000,,2013-02-26 03:52:00,
2013-02-25 20:01:00,48.0,35.0,-100.00,WSW,242,1.0,6.0,60,0.00,,,0.00,0.000000,,2013-02-26 04:01:00,
2013-02-25 20:32:00,44.0,34.0,-100.00,WSW,237,2.0,3.0,67,0.00,,,0.00,0.000000,,2013-02-26 04:32:00,
2013-02-25 20:42:00,44.0,34.0,-100.00,WSW,237,2.0,3.0,67,0.00,,,0.00,0.000000,,2013-02-26 04:42:00,
2013-02-25 20:52:00,44.0,34.0,-100.00,WSW,237,2.0,3.0,67,0.00,,,0.00,0.000000,,2013-02-26 04:52:00,
2013-02-25 21:01:00,44.0,34.0,-100.00,WSW,237,2.0,3.0,67,0.00,,,0.00,0.000000,,2013-02-26 05:01:00,
2013-02-25 21:32:00,42.0,33.0,-100.00,SW,217,2.0,5.0,71,0.00,,,0.00,0.000000,,2013-02-26 05:32:00,
2013-02-25 21:43:00,42.0,33.0,-100.00,SW,217,2.0,5.0,71,0.00,,,0.00,0.000000,,2013-02-26 05:43:00,
2013-02-25 21:52:00,42.0,33.0,-100.00,SW,217,2.0,5.0,71,0.00,,,0.00,0.000000,,2013-02-26 05:52:00,
2013-02-25 22:01:00,42.0,33.0,-100.00,SW,217,2.0,5.0,71,0.00,,,0.00,0.000000,,2013-02-26 06:01:00,
2013-02-25 22:32:00,40.0,33.0,-100.00,SW,221,3.0,6.0,75,0.00,,,0.00,0.000000,,2013-02-26 06:32:00,
2013-02-25 22:42:00,40.0,33.0,-100.00,SW,221,3.0,6.0,75,0.00,,,0.00,0.000000,,2013-02-26 06:42:00,
2013-02-25 22:52:00,40.0,33.0,-100.00,SW,221,3.0,6.0,75,0.00,,,0.00,0.000000,,2013-02-26 06:52:00,
2013-02-25 23:01:00,40.0,33.0,-100.00,SW,221,3.0,6.0,75,0.00,,,0.00,0.000000,,2013-02-26 07:01:00,
2013-02-25 23:32:00,39.0,31.0,-100.00,SSW,211,4.0,7.0,73,0.00,,,0.00,0.000000,,2013-02-26 07:32:00,
2013-02-25 23:42:00,39.0,31.0,-100.00,SSW,211,4.0,7.0,73,0.00,,,0.00,0.000000,,2013-02-26 07:42:00,
2013-02-25 23:52:00,39.0,31.0,-100.00,SSW,211,4.0,7.0,73,0.00,,,0.00,0.000000,,2013-02-26 07:52:00,